Regional Weather Roundup
Issued by NWS Mt. Holly, NJ

Home | Current Version | Previous Version | Text Only | Print | Product List | Glossary On
Versions: 1 2 3 4 5 6 7 8 9 10 11 12 13 14 15 16 17 18 19 20 21 22 23 24 25 26 27 28 29 30 31 32 33 34 35 36 37 38 39 40 41 42 43 44 45 46 47 48 49 50
000
ASUS41 KPHI 021212
RWRPHI

REGIONAL WEATHER ROUNDUP
NATIONAL WEATHER SERVICE MOUNT HOLLY NJ
800 AM EDT WED SEP 02 2015

NOTE:  "FAIR" INDICATES FEW OR NO CLOUDS BELOW 12,000 FEET WITH NO
SIGNIFICANT WEATHER AND/OR OBSTRUCTIONS TO VISIBILITY.

 * = STATION DOES NOT REPORT PRECIPITATION (E.G. RAIN, SNOW, ETC.)
        OR FOG.

NJZ015>026-021300-
SOUTHERN NEW JERSEY

CITY           SKY/WX    TMP DP  RH WIND       PRES   REMARKS
POMONA         FOG       72  71  97 CALM      30.05R VSB<1/4
6HR MIN TEMP:  68; 6HR MAX TEMP:  73;

WILDWOOD*      PTSUNNY   72  68  88 CALM      30.05S
MILLVILLE      FOG       71  69  93 CALM      30.04S VSB 1/4
WRIGHTSTOWN    FOG       70  70 100 S1        30.02S VSB 1/4
MOUNT HOLLY    FOG       69  69 100 CALM      30.05R VSB 1/4
TRENTON        FOG       70  69  97 CALM      30.04S VSB 1/4
6HR MIN TEMP:  68; 6HR MAX TEMP:  72;


$$
NJZ001>014-021300-
NORTHERN NEW JERSEY

CITY           SKY/WX    TMP DP  RH WIND       PRES   REMARKS
SUSSEX         SUNNY     62  60  93 CALM      30.06R
ANDOVER*         N/A     64  63  96 CALM      30.07R
MORRISTOWN     MOSUNNY   64  61  88 CALM      30.05R
NEWARK         MOSUNNY   74  71  91 CALM      30.03S FOG
TETERBORO      SUNNY     75  65  70 CALM      30.03R
CALDWELL       SUNNY     68  63  84 CALM      30.05R HAZE
SOMERVILLE     MOSUNNY   67  63  87 CALM      30.03S FOG
ALLAIRE*       CLOUDY    72  64  78 CALM      30.05S
TOMS RIVER*    CLOUDY    72  70  94 CALM      30.05S

$$
PAZ043-044-047-054-055-060>062-066>071-021300-
EASTERN PENNSYLVANIA

CITY           SKY/WX    TMP DP  RH WIND       PRES   REMARKS
PHILADELPHIA   PTSUNNY   75  71  87 E5        30.04S FOG
6HR MIN TEMP:  73; 6HR MAX TEMP:  76;

NORTH PHILA    FOG       72  69  90 CALM      30.06S VSB 1/4
BLUE BELL      MOSUNNY   70  70 100 CALM      30.05S
DOYLESTOWN     MOSUNNY   67  67 100 CALM      30.05S
QUAKERTOWN*    SUNNY     66  64  94 CALM      30.07S
POTTSTOWN      MOSUNNY   67  66  97 CALM      30.07S FOG
LANCASTER      MOSUNNY   67  65  93 CALM      30.06S FOG
COATESVILLE    MOSUNNY   72  68  88 W3        30.08R FOG
READING        MOSUNNY   69  65  86 CALM      30.05R FOG
6HR MIN TEMP:  66; 6HR MAX TEMP:  70;

ALLENTOWN      SUNNY     68  65  90 CALM      30.06R FOG
6HR MIN TEMP:  63; 6HR MAX TEMP:  68;

MOUNT POCONO   SUNNY     65  62  90 CALM      30.11R FOG
6HR MIN TEMP:  56; 6HR MAX TEMP:  65;

HAZLETON       MOSUNNY   63  63 100 CALM      30.14R FOG
WILKES BARRE   SUNNY     67  62  84 CALM      30.08R

$$
DEZALL-MDZ008-012-015-019-020-021300-
DELAWARE AND EASTERN MARYLAND

CITY           SKY/WX    TMP DP  RH WIND       PRES   REMARKS
WILMINGTON     PTSUNNY   72  69  90 NW3       30.06R FOG
6HR MIN TEMP:  68; 6HR MAX TEMP:  73;

DOVER          FOG       72  72 100 NW2       30.03R VSB 0
GEORGETOWN     PTSUNNY   71  70  96 CALM      30.04S FOG
6HR MIN TEMP:  69; 6HR MAX TEMP:  73;

EASTON         PTSUNNY   75  75 100 CALM      30.07R FOG
ABERDEEN       PTSUNNY   72  64  78 CALM      30.05S
PATUXENT       CLOUDY    75  71  87 W5        30.04R
OCEAN CITY     MOSUNNY   75  72  90 CALM      30.04R
WALLOPS ISLAND CLOUDY    75  75 100 CALM      30.04S
CAMBRIDGE      PTSUNNY   72  70  94 CALM      30.03S
SALISBURY      PTSUNNY   72  71  97 CALM      30.04R FOG

$$
PAZ001-021-NYZ056-072-MDZ011-DCZ001-021300-
OTHER NEARBY LOCATIONS

CITY           SKY/WX    TMP DP  RH WIND       PRES   REMARKS
HARRISBURG     PTSUNNY   72  66  81 NW3       30.06R HAZE
STATE COLLEGE  SUNNY     64  63  94 CALM      30.12R FOG
WILLIAMSPORT   CLOUDY    67  65  93 W7        30.07R FOG
BINGHAMTON     FOG       63  63 100 CALM      30.09S VSB 1/2
NEW YORK CITY  SUNNY     78  66  66 CALM      30.06R HAZE
BALTIMORE      PTSUNNY   73  68  84 W3        30.05R
WASHINGTON DC  CLOUDY    77  70  79 N6        30.06R

$$


USA.gov is the U.S. government's official web portal to all federal, state and local government web resources and services.